Time,TemperatureF,DewpointF,PressureIn,WindDirection,WindDirectionDegrees,WindSpeedMPH,WindSpeedGustMPH,Humidity,HourlyPrecipIn,Conditions,Clouds,dailyrainin,SolarRadiationWatts/m^2,SoftwareType,DateUTC
2013-09-28 00:02:00,70.5,61.4,29.81,SE,125,0.0,4.0,73,0.00,FEW,FEW,0.00,0.0,WeatherDisplay:10.37,2013-09-28 05:02:00,
2013-09-28 00:07:00,70.3,61.2,29.81,NNE,27,0.0,1.0,73,0.00,FEW,FEW,0.00,0.0,WeatherDisplay:10.37,2013-09-28 05:07:00,
2013-09-28 00:12:00,70.1,61.5,29.81,NE,36,0.0,1.0,74,0.00,CLR,CLR,0.00,0.0,WeatherDisplay:10.37,2013-09-28 05:12:00,
2013-09-28 00:17:00,70.3,61.6,29.81,East,86,0.0,4.0,74,0.00,CLR,CLR,0.00,0.0,WeatherDisplay:10.37,2013-09-28 05:17:00,
2013-09-28 00:22:00,70.2,61.6,29.80,ESE,114,1.0,8.0,74,0.00,CLR,CLR,0.00,0.0,WeatherDisplay:10.37,2013-09-28 05:22:00,
2013-09-28 00:27:00,70.0,61.4,29.80,SE,130,0.0,4.0,74,0.00,CLR,CLR,0.00,0.0,WeatherDisplay:10.37,2013-09-28 05:27:00,
2013-09-28 00:32:00,70.0,61.3,29.80,SE,143,1.0,3.0,74,0.00,CLR,CLR,0.00,0.0,WeatherDisplay:10.37,2013-09-28 05:32:00,
2013-09-28 00:37:00,69.9,61.6,29.79,SE,142,0.0,2.0,75,0.00,CLR,CLR,0.00,0.0,WeatherDisplay:10.37,2013-09-28 05:37:00,
2013-09-28 00:42:00,69.8,61.5,29.79,SSE,163,0.0,4.0,75,0.00,CLR,CLR,0.00,0.0,WeatherDisplay:10.37,2013-09-28 05:42:00,
2013-09-28 00:47:00,69.7,61.4,29.79,SSW,192,0.0,4.0,75,0.00,CLR,CLR,0.00,0.0,WeatherDisplay:10.37,2013-09-28 05:47:00,
2013-09-28 00:52:00,69.6,61.3,29.79,SSW,197,0.0,5.0,75,0.00,CLR,CLR,0.00,0.0,WeatherDisplay:10.37,2013-09-28 05:52:00,
2013-09-28 00:57:00,69.4,61.5,29.80,SSE,153,0.0,2.0,76,0.00,CLR,CLR,0.00,0.0,WeatherDisplay:10.37,2013-09-28 05:57:00,
2013-09-28 01:02:00,69.2,61.3,29.79,SE,135,0.0,3.0,76,0.00,CLR,CLR,0.00,0.0,WeatherDisplay:10.37,2013-09-28 06:02:00,
2013-09-28 01:07:00,69.2,61.3,29.79,ESE,116,0.0,3.0,76,0.00,CLR,CLR,0.00,0.0,WeatherDisplay:10.37,2013-09-28 06:07:00,
2013-09-28 01:12:00,69.2,61.3,29.79,East,89,0.0,1.0,76,0.00,CLR,CLR,0.00,0.0,WeatherDisplay:10.37,2013-09-28 06:12:00,
2013-09-28 01:17:00,69.2,61.7,29.78,ESE,110,0.0,5.0,77,0.00,CLR,CLR,0.00,0.0,WeatherDisplay:10.37,2013-09-28 06:17:00,
2013-09-28 01:22:00,69.2,61.7,29.78,South,178,0.0,5.0,77,0.00,CLR,CLR,0.00,0.0,WeatherDisplay:10.37,2013-09-28 06:22:00,
2013-09-28 01:27:00,69.1,61.6,29.78,SSE,150,0.0,5.0,77,0.00,CLR,CLR,0.00,0.0,WeatherDisplay:10.37,2013-09-28 06:27:00,
2013-09-28 01:32:00,69.2,61.7,29.78,ESE,121,0.0,2.0,77,0.00,CLR,CLR,0.00,0.0,WeatherDisplay:10.37,2013-09-28 06:32:00,
2013-09-28 01:37:00,69.2,61.7,29.78,East,92,0.0,5.0,77,0.00,CLR,CLR,0.00,0.0,WeatherDisplay:10.37,2013-09-28 06:37:00,
2013-09-28 01:42:00,69.3,61.8,29.78,East,90,0.0,4.0,77,0.00,CLR,CLR,0.00,0.0,WeatherDisplay:10.37,2013-09-28 06:42:00,
2013-09-28 01:47:00,69.3,61.8,29.78,SE,125,1.0,6.0,77,0.00,CLR,CLR,0.00,0.0,WeatherDisplay:10.37,2013-09-28 06:47:00,
2013-09-28 01:52:00,69.2,61.7,29.78,ESE,102,0.0,5.0,77,0.00,CLR,CLR,0.00,0.0,WeatherDisplay:10.37,2013-09-28 06:52:00,
2013-09-28 01:57:00,69.2,62.0,29.78,ESE,121,0.0,2.0,78,0.00,CLR,CLR,0.00,0.0,WeatherDisplay:10.37,2013-09-28 06:57:00,
2013-09-28 02:02:00,69.2,62.0,29.78,East,88,0.0,1.0,78,0.00,CLR,CLR,0.00,0.0,WeatherDisplay:10.37,2013-09-28 07:02:00,
2013-09-28 02:07:00,68.9,61.8,29.78,ENE,73,0.0,8.0,78,0.00,CLR,CLR,0.00,0.0,WeatherDisplay:10.37,2013-09-28 07:07:00,
2013-09-28 02:12:00,68.6,61.8,29.78,ENE,70,0.0,3.0,79,0.00,CLR,CLR,0.00,0.0,WeatherDisplay:10.37,2013-09-28 07:12:00,
2013-09-28 02:17:00,68.5,61.7,29.78,ESE,105,0.0,4.0,79,0.00,CLR,CLR,0.00,0.0,WeatherDisplay:10.37,2013-09-28 07:17:00,
2013-09-28 02:22:00,68.4,61.6,29.78,SE,124,0.0,2.0,79,0.00,CLR,CLR,0.00,0.0,WeatherDisplay:10.37,2013-09-28 07:22:00,
2013-09-28 02:27:00,68.3,61.9,29.77,ESE,113,0.0,3.0,80,0.00,CLR,CLR,0.00,0.0,WeatherDisplay:10.37,2013-09-28 07:27:00,
2013-09-28 02:32:00,68.3,61.9,29.77,ESE,102,0.0,7.0,80,0.00,CLR,CLR,0.00,0.0,WeatherDisplay:10.37,2013-09-28 07:32:00,
2013-09-28 02:37:00,68.2,61.8,29.78,SSE,155,0.0,0.0,80,0.00,CLR,,0.00,0.0,WeatherDisplay:10.37,2013-09-28 07:37:00,
2013-09-28 02:42:00,68.3,61.9,29.77,ESE,119,0.0,6.0,80,0.00,CLR,CLR,0.00,0.0,WeatherDisplay:10.37,2013-09-28 07:42:00,
2013-09-28 02:47:00,68.3,61.9,29.77,ESE,112,0.0,5.0,80,0.00,CLR,CLR,0.00,0.0,WeatherDisplay:10.37,2013-09-28 07:47:00,
2013-09-28 02:52:00,68.3,61.9,29.77,ESE,116,0.0,4.0,80,0.00,CLR,CLR,0.00,0.0,WeatherDisplay:10.37,2013-09-28 07:52:00,
2013-09-28 02:57:00,68.3,61.9,29.77,ESE,113,0.1,3.5,80,0.00,CLR,,0.00,0.0,WeatherDisplay:10.37,2013-09-28 07:57:00,
2013-09-28 03:02:00,68.2,61.8,29.77,NNW,348,0.0,5.0,80,0.00,CLR,CLR,0.00,0.0,WeatherDisplay:10.37,2013-09-28 08:02:00,
2013-09-28 03:07:00,68.2,62.1,29.76,ESE,115,1.0,7.0,81,0.00,CLR,CLR,0.00,0.0,WeatherDisplay:10.37,2013-09-28 08:07:00,
2013-09-28 03:12:00,68.2,62.1,29.76,SSE,151,0.0,3.0,81,0.00,CLR,CLR,0.00,0.0,WeatherDisplay:10.37,2013-09-28 08:12:00,
2013-09-28 03:17:00,68.2,62.1,29.76,SSE,159,0.0,4.0,81,0.00,CLR,CLR,0.00,0.0,WeatherDisplay:10.37,2013-09-28 08:17:00,
2013-09-28 03:22:00,68.2,62.1,29.76,SE,125,1.0,4.0,81,0.00,CLR,CLR,0.00,0.0,WeatherDisplay:10.37,2013-09-28 08:22:00,
2013-09-28 03:27:00,68.2,62.1,29.76,SE,126,1.0,7.0,81,0.00,CLR,CLR,0.00,0.0,WeatherDisplay:10.37,2013-09-28 08:27:00,
2013-09-28 03:32:00,68.2,62.1,29.76,ESE,104,1.6,7.0,81,0.00,CLR,,0.00,0.0,WeatherDisplay:10.37,2013-09-28 08:32:00,
2013-09-28 03:37:00,68.0,61.9,29.76,SSE,158,1.0,9.0,81,0.00,CLR,CLR,0.00,0.0,WeatherDisplay:10.37,2013-09-28 08:37:00,
2013-09-28 03:42:00,68.1,62.4,29.76,South,181,0.0,3.0,82,0.00,CLR,CLR,0.00,0.0,WeatherDisplay:10.37,2013-09-28 08:42:00,
2013-09-28 03:47:00,67.9,62.2,29.76,South,185,1.0,5.0,82,0.00,CLR,CLR,0.00,0.0,WeatherDisplay:10.37,2013-09-28 08:47:00,
2013-09-28 03:52:00,67.8,62.1,29.77,South,169,0.0,4.0,82,0.00,CLR,CLR,0.00,0.0,WeatherDisplay:10.37,2013-09-28 08:52:00,
2013-09-28 03:57:00,67.7,62.0,29.76,South,172,1.0,3.0,82,0.00,CLR,CLR,0.00,0.0,WeatherDisplay:10.37,2013-09-28 08:57:00,
2013-09-28 04:02:00,67.7,62.0,29.76,South,169,0.0,1.0,82,0.00,CLR,CLR,0.00,0.0,WeatherDisplay:10.37,2013-09-28 09:02:00,
2013-09-28 04:07:00,67.5,62.2,29.76,SE,136,0.0,4.0,83,0.00,CLR,CLR,0.00,0.0,WeatherDisplay:10.37,2013-09-28 09:07:00,
2013-09-28 04:12:00,67.4,62.1,29.76,SE,139,0.0,3.0,83,0.00,CLR,CLR,0.00,0.0,WeatherDisplay:10.37,2013-09-28 09:12:00,
2013-09-28 04:17:00,67.3,62.0,29.76,SSE,150,1.0,8.0,83,0.00,CLR,CLR,0.00,0.0,WeatherDisplay:10.37,2013-09-28 09:17:00,
2013-09-28 04:22:00,67.2,62.2,29.76,SSE,152,0.0,1.0,84,0.00,CLR,CLR,0.00,0.0,WeatherDisplay:10.37,2013-09-28 09:22:00,
2013-09-28 04:27:00,67.2,62.2,29.75,SE,141,0.0,1.0,84,0.00,CLR,CLR,0.00,0.0,WeatherDisplay:10.37,2013-09-28 09:27:00,
2013-09-28 04:32:00,67.1,62.1,29.75,SE,138,0.0,3.0,84,0.00,CLR,CLR,0.00,0.0,WeatherDisplay:10.37,2013-09-28 09:32:00,
2013-09-28 04:37:00,67.1,62.1,29.75,SE,140,0.0,4.0,84,0.00,CLR,CLR,0.00,0.0,WeatherDisplay:10.37,2013-09-28 09:37:00,
2013-09-28 04:42:00,67.2,62.2,29.75,SSE,154,1.0,3.0,84,0.00,CLR,CLR,0.00,0.0,WeatherDisplay:10.37,2013-09-28 09:42:00,
2013-09-28 04:47:00,67.2,62.2,29.75,SSE,166,1.0,6.0,84,0.00,CLR,CLR,0.00,0.0,WeatherDisplay:10.37,2013-09-28 09:47:00,
2013-09-28 04:52:00,67.3,62.3,29.74,SE,146,1.0,3.0,84,0.00,CLR,CLR,0.00,0.0,WeatherDisplay:10.37,2013-09-28 09:52:00,
2013-09-28 04:57:00,67.2,62.2,29.74,ESE,122,0.0,2.0,84,0.00,CLR,CLR,0.00,0.0,WeatherDisplay:10.37,2013-09-28 09:57:00,
2013-09-28 05:02:00,67.0,62.0,29.74,SSW,210,0.0,4.0,84,0.00,CLR,CLR,0.00,0.0,WeatherDisplay:10.37,2013-09-28 10:02:00,
2013-09-28 05:07:00,67.0,62.0,29.74,SSE,151,1.0,7.0,84,0.00,CLR,CLR,0.00,0.0,WeatherDisplay:10.37,2013-09-28 10:07:00,
2013-09-28 05:12:00,66.9,62.2,29.74,South,178,0.0,3.0,85,0.00,CLR,CLR,0.00,0.0,WeatherDisplay:10.37,2013-09-28 10:12:00,
2013-09-28 05:17:00,66.8,62.1,29.74,SSW,201,0.0,3.0,85,0.00,CLR,CLR,0.00,0.0,WeatherDisplay:10.37,2013-09-28 10:17:00,
2013-09-28 05:22:00,67.0,62.3,29.74,South,179,0.0,3.0,85,0.00,CLR,CLR,0.00,0.0,WeatherDisplay:10.37,2013-09-28 10:22:00,
2013-09-28 05:27:00,67.2,62.2,29.74,ENE,62,0.0,9.0,84,0.00,CLR,CLR,0.00,0.0,WeatherDisplay:10.37,2013-09-28 10:27:00,
2013-09-28 05:32:00,67.2,62.2,29.74,ENE,75,1.0,4.0,84,0.00,CLR,CLR,0.00,0.0,WeatherDisplay:10.37,2013-09-28 10:32:00,
2013-09-28 05:37:00,67.2,62.2,29.75,ESE,118,0.0,3.0,84,0.00,CLR,CLR,0.00,0.0,WeatherDisplay:10.37,2013-09-28 10:37:00,
2013-09-28 05:42:00,67.2,62.2,29.74,ENE,75,1.0,5.0,84,0.00,CLR,CLR,0.00,0.0,WeatherDisplay:10.37,2013-09-28 10:42:00,
2013-09-28 05:47:00,67.3,62.3,29.74,NE,42,1.0,4.0,84,0.00,CLR,CLR,0.00,0.0,WeatherDisplay:10.37,2013-09-28 10:47:00,
2013-09-28 05:52:00,67.4,62.4,29.74,SE,126,0.0,8.0,84,0.00,CLR,CLR,0.00,0.0,WeatherDisplay:10.37,2013-09-28 10:52:00,
2013-09-28 05:57:00,67.5,62.2,29.74,ESE,111,1.0,9.0,83,0.00,CLR,CLR,0.00,0.0,WeatherDisplay:10.37,2013-09-28 10:57:00,
2013-09-28 06:02:00,67.6,62.3,29.74,East,99,0.0,6.0,83,0.00,CLR,CLR,0.00,0.0,WeatherDisplay:10.37,2013-09-28 11:02:00,
2013-09-28 06:07:00,67.7,62.3,29.74,SSE,150,0.0,3.0,83,0.00,CLR,CLR,0.00,0.0,WeatherDisplay:10.37,2013-09-28 11:07:00,
2013-09-28 06:12:00,67.7,62.3,29.74,South,186,0.0,5.0,83,0.00,CLR,CLR,0.00,0.0,WeatherDisplay:10.37,2013-09-28 11:12:00,
2013-09-28 06:17:00,67.8,62.4,29.74,South,172,0.0,3.0,83,0.00,CLR,CLR,0.00,0.0,WeatherDisplay:10.37,2013-09-28 11:17:00,
2013-09-28 06:22:00,67.9,62.5,29.74,East,92,0.0,4.0,83,0.00,CLR,CLR,0.00,0.0,WeatherDisplay:10.37,2013-09-28 11:22:00,
2013-09-28 06:27:00,67.9,62.5,29.74,SSE,160,1.0,6.0,83,0.00,CLR,CLR,0.00,0.0,WeatherDisplay:10.37,2013-09-28 11:27:00,
2013-09-28 06:32:00,67.9,62.5,29.73,SSE,159,1.0,4.0,83,0.00,CLR,CLR,0.00,0.0,WeatherDisplay:10.37,2013-09-28 11:32:00,
2013-09-28 06:37:00,67.9,62.5,29.73,SSE,150,0.0,3.0,83,0.00,CLR,CLR,0.00,0.0,WeatherDisplay:10.37,2013-09-28 11:37:00,
2013-09-28 06:42:00,67.9,62.2,29.74,SSE,158,1.0,5.0,82,0.00,CLR,CLR,0.00,0.0,WeatherDisplay:10.37,2013-09-28 11:42:00,
2013-09-28 06:47:00,68.0,62.3,29.74,South,178,1.0,7.0,82,0.00,CLR,CLR,0.00,0.0,WeatherDisplay:10.37,2013-09-28 11:47:00,
2013-09-28 06:52:00,67.9,62.2,29.74,SE,145,0.0,0.0,82,0.00,CLR,CLR,0.00,0.0,WeatherDisplay:10.37,2013-09-28 11:52:00,
2013-09-28 06:57:00,68.0,62.3,29.74,ESE,112,1.0,7.0,82,0.00,CLR,CLR,0.00,0.0,WeatherDisplay:10.37,2013-09-28 11:57:00,
2013-09-28 07:02:00,68.2,62.5,29.75,SE,136,1.0,6.0,82,0.00,CLR,CLR,0.00,0.0,WeatherDisplay:10.37,2013-09-28 12:02:00,
2013-09-28 07:07:00,68.4,62.3,29.75,SSE,162,0.0,4.0,81,0.00,CLR,CLR,0.00,0.0,WeatherDisplay:10.37,2013-09-28 12:07:00,
2013-09-28 07:12:00,68.4,63.0,29.76,South,171,1.0,10.0,83,0.04,RA,RA,0.06,0.0,WeatherDisplay:10.37,2013-09-28 12:12:00,
2013-09-28 07:17:00,67.0,63.0,29.76,SSE,151,1.0,10.0,87,0.01,RA,RA,0.08,0.0,WeatherDisplay:10.37,2013-09-28 12:17:00,
2013-09-28 07:22:00,66.3,63.2,29.76,SSE,159,0.0,4.0,90,0.00,OVC,OVC,0.08,0.0,WeatherDisplay:10.37,2013-09-28 12:22:00,
2013-09-28 07:27:00,65.8,63.1,29.75,South,174,0.0,0.0,91,0.08,OVC,,0.09,0.0,WeatherDisplay:10.37,2013-09-28 12:27:00,
2013-09-28 07:32:00,65.6,63.2,29.75,South,171,0.0,6.0,92,0.00,OVC,OVC,0.09,0.0,WeatherDisplay:10.37,2013-09-28 12:32:00,
2013-09-28 07:37:00,65.4,63.3,29.75,South,175,0.0,4.0,93,0.00,OVC,OVC,0.10,5.0,WeatherDisplay:10.37,2013-09-28 12:37:00,
2013-09-28 07:42:00,65.3,63.2,29.75,SSW,204,0.0,3.0,93,0.00,OVC,OVC,0.10,9.0,WeatherDisplay:10.37,2013-09-28 12:42:00,
2013-09-28 07:47:00,65.3,63.2,29.75,SSW,202,0.0,6.0,93,0.00,OVC,OVC,0.10,9.0,WeatherDisplay:10.37,2013-09-28 12:47:00,
2013-09-28 07:52:00,65.3,63.3,29.74,South,174,0.0,4.0,93,0.00,RA,RA,0.12,9.0,WeatherDisplay:10.37,2013-09-28 12:52:00,
2013-09-28 07:57:00,65.2,63.1,29.75,SSE,168,0.0,6.0,93,0.00,OVC,OVC,0.12,25.0,WeatherDisplay:10.37,2013-09-28 12:57:00,
2013-09-28 08:02:00,65.2,63.1,29.75,South,172,1.0,5.0,93,0.00,OVC,OVC,0.12,32.0,WeatherDisplay:10.37,2013-09-28 13:02:00,
2013-09-28 08:07:00,65.4,63.3,29.75,South,169,0.0,3.0,93,0.00,OVC,OVC,0.12,30.0,WeatherDisplay:10.37,2013-09-28 13:07:00,
2013-09-28 08:12:00,65.4,63.3,29.75,SSW,192,0.0,4.0,93,0.00,OVC,OVC,0.12,39.0,WeatherDisplay:10.37,2013-09-28 13:12:00,
2013-09-28 08:17:00,65.4,63.6,29.74,South,190,0.0,5.0,94,0.00,OVC,OVC,0.12,49.0,WeatherDisplay:10.37,2013-09-28 13:17:00,
2013-09-28 08:22:00,65.6,63.8,29.74,SSE,151,0.0,0.0,94,0.04,OVC,,0.12,54.0,WeatherDisplay:10.37,2013-09-28 13:22:00,
2013-09-28 08:27:00,65.6,63.5,29.74,SSE,152,0.0,4.0,93,0.00,OVC,OVC,0.12,74.0,WeatherDisplay:10.37,2013-09-28 13:27:00,
2013-09-28 08:32:00,65.7,63.6,29.74,SE,146,0.0,4.0,93,0.00,OVC,OVC,0.12,76.0,WeatherDisplay:10.37,2013-09-28 13:32:00,
2013-09-28 08:37:00,65.8,63.8,29.74,SSW,201,0.0,3.0,93,0.00,OVC,OVC,0.12,84.0,WeatherDisplay:10.37,2013-09-28 13:37:00,
2013-09-28 08:42:00,65.9,64.1,29.74,SSW,204,0.0,2.0,94,0.00,OVC,OVC,0.12,109.0,WeatherDisplay:10.37,2013-09-28 13:42:00,
2013-09-28 08:47:00,66.1,64.0,29.74,South,179,0.0,6.0,93,0.00,OVC,OVC,0.12,90.0,WeatherDisplay:10.37,2013-09-28 13:47:00,
2013-09-28 08:52:00,66.2,64.1,29.74,South,174,0.0,4.0,93,0.00,OVC,OVC,0.12,79.0,WeatherDisplay:10.37,2013-09-28 13:52:00,
2013-09-28 08:57:00,66.2,64.1,29.74,SSW,200,0.2,3.0,93,0.00,OVC,,0.12,90.0,WeatherDisplay:10.37,2013-09-28 13:57:00,
2013-09-28 09:02:00,66.3,64.2,29.74,South,177,1.0,6.0,93,0.00,OVC,OVC,0.12,93.0,WeatherDisplay:10.37,2013-09-28 14:02:00,
2013-09-28 09:07:00,66.4,64.3,29.74,SSW,203,0.0,6.0,93,0.00,OVC,OVC,0.12,98.0,WeatherDisplay:10.37,2013-09-28 14:07:00,
2013-09-28 09:12:00,66.5,64.4,29.74,SSE,164,0.0,7.0,93,0.00,OVC,OVC,0.12,100.0,WeatherDisplay:10.37,2013-09-28 14:12:00,
2013-09-28 09:17:00,66.7,64.6,29.73,NNE,31,0.0,2.3,93,0.00,OVC,,0.12,79.0,WeatherDisplay:10.37,2013-09-28 14:17:00,
2013-09-28 09:22:00,66.8,64.7,29.73,ESE,103,0.0,4.0,93,0.00,OVC,OVC,0.12,77.0,WeatherDisplay:10.37,2013-09-28 14:22:00,
2013-09-28 09:27:00,66.8,64.7,29.73,ESE,120,1.0,4.0,93,0.00,OVC,OVC,0.12,88.0,WeatherDisplay:10.37,2013-09-28 14:27:00,
2013-09-28 09:32:00,66.9,64.5,29.73,SSE,156,0.0,8.0,92,0.00,OVC,OVC,0.12,109.0,WeatherDisplay:10.37,2013-09-28 14:32:00,
2013-09-28 09:37:00,67.0,64.6,29.73,South,172,1.0,7.0,92,0.00,OVC,OVC,0.12,116.0,WeatherDisplay:10.37,2013-09-28 14:37:00,
2013-09-28 09:42:00,67.2,64.8,29.73,SSE,168,0.0,7.0,92,0.00,OVC,OVC,0.12,105.0,WeatherDisplay:10.37,2013-09-28 14:42:00,
2013-09-28 09:47:00,67.5,65.4,29.73,SSW,203,0.0,7.0,93,0.00,OVC,OVC,0.12,193.0,WeatherDisplay:10.37,2013-09-28 14:47:00,
2013-09-28 09:52:00,68.0,65.6,29.74,South,169,0.1,2.3,92,0.00,OVC,,0.12,141.0,WeatherDisplay:10.37,2013-09-28 14:52:00,
2013-09-28 09:57:00,68.2,65.2,29.74,SSE,152,5.0,12.0,90,0.00,OVC,OVC,0.12,139.0,WeatherDisplay:10.37,2013-09-28 14:57:00,
2013-09-28 10:02:00,68.3,65.3,29.74,SSE,153,0.0,8.0,90,0.00,OVC,OVC,0.12,93.0,WeatherDisplay:10.37,2013-09-28 15:02:00,
2013-09-28 10:07:00,68.3,65.3,29.74,South,176,2.0,8.0,90,0.00,OVC,OVC,0.12,84.0,WeatherDisplay:10.37,2013-09-28 15:07:00,
2013-09-28 10:12:00,68.3,64.9,29.75,South,173,1.0,9.0,89,0.00,OVC,OVC,0.12,81.0,WeatherDisplay:10.37,2013-09-28 15:12:00,
2013-09-28 10:17:00,68.4,65.0,29.75,SSE,168,1.0,13.0,89,0.00,OVC,OVC,0.12,76.0,WeatherDisplay:10.37,2013-09-28 15:17:00,
2013-09-28 10:22:00,68.4,65.3,29.75,SSE,156,1.0,7.0,90,0.00,OVC,OVC,0.12,74.0,WeatherDisplay:10.37,2013-09-28 15:22:00,
2013-09-28 10:27:00,68.4,65.0,29.75,East,87,0.7,3.5,89,0.00,OVC,,0.12,69.0,WeatherDisplay:10.37,2013-09-28 15:27:00,
2013-09-28 10:32:00,68.1,64.8,29.75,ESE,123,1.0,7.0,89,0.00,OVC,OVC,0.12,51.0,WeatherDisplay:10.37,2013-09-28 15:32:00,
2013-09-28 10:37:00,68.0,65.0,29.75,East,98,1.0,5.0,90,0.00,OVC,OVC,0.12,49.0,WeatherDisplay:10.37,2013-09-28 15:37:00,
2013-09-28 10:42:00,67.8,64.8,29.75,SE,135,1.0,10.0,90,0.00,OVC,OVC,0.12,21.0,WeatherDisplay:10.37,2013-09-28 15:42:00,
2013-09-28 10:47:00,67.9,64.5,29.75,SSE,160,2.0,10.0,89,0.00,OVC,OVC,0.13,30.0,WeatherDisplay:10.37,2013-09-28 15:47:00,
2013-09-28 10:52:00,67.7,65.0,29.75,South,172,1.0,5.0,91,0.00,OVC,OVC,0.14,51.0,WeatherDisplay:10.37,2013-09-28 15:52:00,
2013-09-28 10:57:00,67.4,65.0,29.74,SSE,165,0.0,6.0,92,0.00,OVC,OVC,0.14,72.0,WeatherDisplay:10.37,2013-09-28 15:57:00,
2013-09-28 11:02:00,67.2,64.8,29.75,SSE,158,1.0,6.0,92,0.00,OVC,OVC,0.15,76.0,WeatherDisplay:10.37,2013-09-28 16:02:00,
2013-09-28 11:07:00,67.2,65.1,29.76,South,170,0.0,7.0,93,0.00,OVC,OVC,0.15,53.0,WeatherDisplay:10.37,2013-09-28 16:07:00,
2013-09-28 11:12:00,67.2,65.1,29.76,SSE,154,0.0,3.0,93,0.00,OVC,OVC,0.16,74.0,WeatherDisplay:10.37,2013-09-28 16:12:00,
2013-09-28 11:17:00,67.2,65.1,29.76,SE,134,0.0,7.0,93,0.00,RA,RA,0.17,76.0,WeatherDisplay:10.37,2013-09-28 16:17:00,
2013-09-28 11:22:00,67.2,65.4,29.75,South,173,0.5,4.0,94,0.05,OVC,,0.17,104.0,WeatherDisplay:10.37,2013-09-28 16:22:00,
2013-09-28 11:27:00,67.1,65.0,29.76,South,184,0.0,4.0,93,0.00,OVC,OVC,0.18,12.0,WeatherDisplay:10.37,2013-09-28 16:27:00,
2013-09-28 11:32:00,66.9,65.1,29.76,South,175,0.0,4.0,94,0.00,OVC,OVC,0.18,19.0,WeatherDisplay:10.37,2013-09-28 16:32:00,
2013-09-28 11:37:00,66.8,65.0,29.76,WSW,253,0.0,4.0,94,0.00,OVC,OVC,0.18,19.0,WeatherDisplay:10.37,2013-09-28 16:37:00,
2013-09-28 11:42:00,66.4,64.0,29.80,West,261,3.0,13.0,92,0.00,OVC,OVC,0.18,5.0,WeatherDisplay:10.37,2013-09-28 16:42:00,
2013-09-28 11:47:00,62.4,58.1,29.80,WSW,255,1.0,9.0,86,0.00,OVC,OVC,0.18,11.0,WeatherDisplay:10.37,2013-09-28 16:47:00,
2013-09-28 11:52:00,59.6,56.6,29.81,WSW,255,2.0,13.0,90,0.00,OVC,OVC,0.18,7.0,WeatherDisplay:10.37,2013-09-28 16:52:00,
2013-09-28 11:57:00,58.3,56.0,29.81,West,273,2.0,12.0,92,0.00,OVC,OVC,0.19,11.0,WeatherDisplay:10.37,2013-09-28 16:57:00,
2013-09-28 12:02:00,57.5,55.2,29.82,West,275,2.0,10.0,92,0.00,OVC,OVC,0.20,19.0,WeatherDisplay:10.37,2013-09-28 17:02:00,
2013-09-28 12:07:00,57.1,54.8,29.83,West,274,2.0,16.0,92,0.00,OVC,OVC,0.20,19.0,WeatherDisplay:10.37,2013-09-28 17:07:00,
2013-09-28 12:12:00,56.6,54.3,29.83,WNW,283,1.0,12.0,92,0.00,RA,RA,0.21,30.0,WeatherDisplay:10.37,2013-09-28 17:12:00,
2013-09-28 12:17:00,56.2,53.9,29.83,West,261,4.4,11.5,92,0.04,OVC,,0.21,53.0,WeatherDisplay:10.37,2013-09-28 17:17:00,
2013-09-28 12:22:00,56.0,53.7,29.83,West,266,5.0,12.0,92,0.00,OVC,OVC,0.21,53.0,WeatherDisplay:10.37,2013-09-28 17:22:00,
2013-09-28 12:27:00,55.9,53.9,29.84,West,264,1.0,12.0,93,0.00,OVC,OVC,0.21,60.0,WeatherDisplay:10.37,2013-09-28 17:27:00,
2013-09-28 12:32:00,55.8,53.8,29.84,West,267,1.0,13.0,93,0.00,OVC,OVC,0.21,53.0,WeatherDisplay:10.37,2013-09-28 17:32:00,
2013-09-28 12:37:00,55.7,53.7,29.85,West,266,3.0,14.0,93,0.00,OVC,OVC,0.21,70.0,WeatherDisplay:10.37,2013-09-28 17:37:00,
2013-09-28 12:42:00,55.7,53.7,29.84,West,265,0.0,10.0,93,0.00,OVC,OVC,0.21,84.0,WeatherDisplay:10.37,2013-09-28 17:42:00,
2013-09-28 12:47:00,55.8,54.1,29.85,WNW,289,1.0,9.0,94,0.00,OVC,OVC,0.21,67.0,WeatherDisplay:10.37,2013-09-28 17:47:00,
2013-09-28 12:52:00,55.8,53.8,29.85,West,263,0.1,3.5,93,0.03,OVC,,0.21,69.0,WeatherDisplay:10.37,2013-09-28 17:52:00,
2013-09-28 12:57:00,55.8,53.8,29.85,West,269,3.0,10.0,93,0.00,OVC,OVC,0.21,60.0,WeatherDisplay:10.37,2013-09-28 17:57:00,
2013-09-28 13:02:00,55.7,53.7,29.85,West,275,3.0,9.0,93,0.00,OVC,OVC,0.21,76.0,WeatherDisplay:10.37,2013-09-28 18:02:00,
2013-09-28 13:07:00,55.9,54.2,29.85,West,281,2.0,9.0,94,0.00,OVC,OVC,0.21,67.0,WeatherDisplay:10.37,2013-09-28 18:07:00,
2013-09-28 13:12:00,55.9,54.2,29.86,West,276,1.0,9.0,94,0.00,OVC,OVC,0.21,37.0,WeatherDisplay:10.37,2013-09-28 18:12:00,
2013-09-28 13:17:00,55.8,54.1,29.86,WSW,258,2.0,9.0,94,0.00,OVC,OVC,0.21,30.0,WeatherDisplay:10.37,2013-09-28 18:17:00,
2013-09-28 13:22:00,55.9,54.2,29.86,WSW,252,1.0,4.0,94,0.00,OVC,OVC,0.21,44.0,WeatherDisplay:10.37,2013-09-28 18:22:00,
2013-09-28 13:27:00,55.9,54.2,29.86,West,279,1.0,4.0,94,0.00,OVC,OVC,0.22,70.0,WeatherDisplay:10.37,2013-09-28 18:27:00,
2013-09-28 13:32:00,55.9,54.2,29.85,WNW,301,0.0,6.0,94,0.00,OVC,OVC,0.22,149.0,WeatherDisplay:10.37,2013-09-28 18:32:00,
2013-09-28 13:37:00,56.4,55.0,29.85,NW,306,0.0,0.0,95,0.01,OVC,,0.22,102.0,WeatherDisplay:10.37,2013-09-28 18:37:00,
2013-09-28 13:42:00,56.4,54.7,29.85,SSW,202,1.1,4.0,94,0.01,OVC,,0.22,81.0,WeatherDisplay:10.37,2013-09-28 18:42:00,
2013-09-28 13:47:00,56.4,54.7,29.85,WNW,286,3.1,4.0,94,0.01,OVC,,0.22,69.0,WeatherDisplay:10.37,2013-09-28 18:47:00,
2013-09-28 13:53:00,56.3,54.6,29.85,SSW,203,0.4,6.0,94,0.01,OVC,,0.22,105.0,WeatherDisplay:10.37,2013-09-28 18:53:00,
2013-09-28 13:58:00,56.5,54.8,29.85,South,190,0.0,0.0,94,0.01,OVC,,0.22,98.0,WeatherDisplay:10.37,2013-09-28 18:58:00,
2013-09-28 14:03:00,56.5,54.5,29.85,West,269,3.8,11.5,93,0.01,OVC,,0.22,90.0,WeatherDisplay:10.37,2013-09-28 19:03:00,
2013-09-28 14:08:00,56.6,54.6,29.85,WNW,294,3.0,7.0,93,0.01,OVC,,0.22,179.0,WeatherDisplay:10.37,2013-09-28 19:08:00,
2013-09-28 14:14:00,57.0,55.0,29.85,West,271,0.2,2.3,93,0.01,OVC,,0.22,299.0,WeatherDisplay:10.37,2013-09-28 19:14:00,
2013-09-28 14:19:00,57.7,55.4,29.85,WNW,290,3.8,10.0,92,0.01,OVC,,0.22,269.0,WeatherDisplay:10.37,2013-09-28 19:19:00,
2013-09-28 14:24:00,57.6,54.7,29.86,NNW,329,0.6,6.9,90,0.00,OVC,,0.22,63.0,WeatherDisplay:10.37,2013-09-28 19:24:00,
2013-09-28 14:29:00,57.6,55.3,29.86,WSW,240,0.0,0.0,92,0.00,OVC,,0.22,283.0,WeatherDisplay:10.37,2013-09-28 19:29:00,
2013-09-28 14:35:00,58.1,54.9,29.86,West,259,1.6,11.5,89,0.00,OVC,,0.22,192.0,WeatherDisplay:10.37,2013-09-28 19:35:00,
2013-09-28 14:40:00,58.3,55.1,29.87,WNW,300,1.1,2.0,89,0.00,OVC,,0.22,95.0,WeatherDisplay:10.37,2013-09-28 19:40:00,
2013-09-28 14:45:00,57.9,54.4,29.87,West,280,0.0,1.2,88,0.00,OVC,,0.22,125.0,WeatherDisplay:10.37,2013-09-28 19:45:00,
2013-09-28 14:50:00,58.0,55.1,29.88,WNW,301,0.0,1.2,90,0.00,OVC,,0.22,98.0,WeatherDisplay:10.37,2013-09-28 19:50:00,
2013-09-28 14:56:00,58.0,55.1,29.88,NNE,21,0.9,0.0,90,0.00,OVC,,0.22,77.0,WeatherDisplay:10.37,2013-09-28 19:56:00,
2013-09-28 15:01:00,58.0,55.1,29.88,South,171,1.2,3.5,90,0.00,OVC,,0.22,151.0,WeatherDisplay:10.37,2013-09-28 20:01:00,
2013-09-28 15:06:00,58.4,55.8,29.88,SW,234,0.0,0.0,91,0.00,OVC,,0.22,190.0,WeatherDisplay:10.37,2013-09-28 20:06:00,
2013-09-28 15:11:00,59.0,55.4,29.88,WNW,288,1.3,4.6,88,0.00,OVC,,0.22,207.0,WeatherDisplay:10.37,2013-09-28 20:11:00,
2013-09-28 15:17:00,59.0,55.1,29.88,WSW,256,0.1,1.2,87,0.00,OVC,,0.22,130.0,WeatherDisplay:10.37,2013-09-28 20:17:00,
2013-09-28 15:22:00,59.1,55.2,29.89,NW,310,0.0,4.0,87,0.00,OVC,OVC,0.22,243.0,WeatherDisplay:10.37,2013-09-28 20:22:00,
2013-09-28 15:27:00,59.5,54.7,29.90,WNW,301,1.0,8.0,84,0.00,OVC,OVC,0.22,121.0,WeatherDisplay:10.37,2013-09-28 20:27:00,
2013-09-28 15:32:00,59.4,53.9,29.89,WSW,248,2.0,9.0,82,0.00,OVC,OVC,0.22,244.0,WeatherDisplay:10.37,2013-09-28 20:32:00,
2013-09-28 15:37:00,59.6,54.1,29.89,West,273,1.0,8.0,82,0.00,OVC,OVC,0.22,214.0,WeatherDisplay:10.37,2013-09-28 20:37:00,
2013-09-28 15:42:00,59.7,53.5,29.89,West,280,2.0,12.0,80,0.00,OVC,OVC,0.22,144.0,WeatherDisplay:10.37,2013-09-28 20:42:00,
2013-09-28 15:47:00,59.6,54.1,29.89,West,281,1.0,12.0,82,0.00,OVC,OVC,0.22,185.0,WeatherDisplay:10.37,2013-09-28 20:47:00,
2013-09-28 15:52:00,59.7,54.2,29.89,NW,309,0.8,3.5,82,0.00,OVC,,0.22,120.0,WeatherDisplay:10.37,2013-09-28 20:52:00,
2013-09-28 15:57:00,59.7,53.5,29.90,West,267,3.0,13.0,80,0.00,OVC,OVC,0.22,315.0,WeatherDisplay:10.37,2013-09-28 20:57:00,
2013-09-28 16:02:00,59.8,54.0,29.90,West,267,0.0,8.0,81,0.00,OVC,OVC,0.22,123.0,WeatherDisplay:10.37,2013-09-28 21:02:00,
2013-09-28 16:07:00,60.0,54.2,29.90,West,279,3.0,10.0,81,0.00,OVC,OVC,0.22,192.0,WeatherDisplay:10.37,2013-09-28 21:07:00,
2013-09-28 16:12:00,60.3,53.4,29.90,WNW,301,2.0,7.0,78,0.00,OVC,OVC,0.22,195.0,WeatherDisplay:10.37,2013-09-28 21:12:00,
2013-09-28 16:17:00,60.5,53.6,29.90,NW,308,0.0,7.0,78,0.00,OVC,OVC,0.22,163.0,WeatherDisplay:10.37,2013-09-28 21:17:00,
2013-09-28 16:22:00,60.7,54.1,29.90,WNW,290,2.0,7.0,79,0.00,OVC,OVC,0.22,199.0,WeatherDisplay:10.37,2013-09-28 21:22:00,
2013-09-28 16:27:00,60.8,53.9,29.90,WNW,296,0.0,3.0,78,0.00,OVC,OVC,0.22,176.0,WeatherDisplay:10.37,2013-09-28 21:27:00,
2013-09-28 16:32:00,60.9,53.6,29.90,NW,316,1.0,7.0,77,0.00,OVC,OVC,0.22,186.0,WeatherDisplay:10.37,2013-09-28 21:32:00,
2013-09-28 16:37:00,60.9,53.3,29.90,WNW,294,0.0,4.0,76,0.00,OVC,OVC,0.22,174.0,WeatherDisplay:10.37,2013-09-28 21:37:00,
2013-09-28 16:42:00,61.2,53.6,29.91,West,270,0.0,0.0,76,0.00,OVC,,0.22,174.0,WeatherDisplay:10.37,2013-09-28 21:42:00,
2013-09-28 16:47:00,61.3,53.7,29.90,NW,311,0.1,3.5,76,0.00,OVC,,0.22,169.0,WeatherDisplay:10.37,2013-09-28 21:47:00,
2013-09-28 16:52:00,61.4,53.4,29.91,WNW,300,0.0,3.5,75,0.00,OVC,,0.22,211.0,WeatherDisplay:10.37,2013-09-28 21:52:00,
2013-09-28 16:58:00,61.3,52.9,29.91,SSW,198,2.6,2.6,74,0.00,OVC,,0.22,107.0,WeatherDisplay:10.37,2013-09-28 21:58:00,
2013-09-28 17:03:00,61.1,52.7,29.91,West,259,0.0,0.0,74,0.00,OVC,,0.22,79.0,WeatherDisplay:10.37,2013-09-28 22:03:00,
2013-09-28 17:08:00,60.8,53.5,29.92,WNW,296,0.0,0.0,77,0.00,OVC,,0.22,72.0,WeatherDisplay:10.37,2013-09-28 22:08:00,
2013-09-28 17:13:00,60.7,52.4,29.92,South,171,0.9,3.5,74,0.00,OVC,,0.22,37.0,WeatherDisplay:10.37,2013-09-28 22:13:00,
2013-09-28 17:19:00,60.5,52.2,29.91,WNW,292,0.0,3.5,74,0.00,OVC,,0.22,40.0,WeatherDisplay:10.37,2013-09-28 22:19:00,
2013-09-28 17:24:00,60.5,52.2,29.92,WNW,300,2.3,7.0,74,0.00,OVC,,0.22,39.0,WeatherDisplay:10.37,2013-09-28 22:24:00,
2013-09-28 17:29:00,60.8,52.5,29.92,West,265,0.0,1.2,74,0.00,OVC,,0.22,35.0,WeatherDisplay:10.37,2013-09-28 22:29:00,
2013-09-28 17:34:00,60.9,52.9,29.92,WSW,254,0.0,0.0,75,0.00,OVC,,0.22,51.0,WeatherDisplay:10.37,2013-09-28 22:34:00,
2013-09-28 17:40:00,61.2,52.8,29.92,SW,227,0.0,0.0,74,0.00,OVC,,0.22,23.0,WeatherDisplay:10.37,2013-09-28 22:40:00,
2013-09-28 17:45:00,60.9,52.9,29.92,NW,319,0.0,1.2,75,0.00,OVC,,0.22,18.0,WeatherDisplay:10.37,2013-09-28 22:45:00,
2013-09-28 17:50:00,60.7,52.7,29.92,WNW,297,0.0,1.2,75,0.00,OVC,,0.22,25.0,WeatherDisplay:10.37,2013-09-28 22:50:00,
2013-09-28 17:55:00,60.3,52.3,29.92,NW,308,0.1,2.3,75,0.00,OVC,,0.22,18.0,WeatherDisplay:10.37,2013-09-28 22:55:00,
2013-09-28 18:01:00,60.0,52.1,29.92,NW,310,0.0,0.0,75,0.00,OVC,,0.22,19.0,WeatherDisplay:10.37,2013-09-28 23:01:00,
2013-09-28 18:06:00,59.8,52.6,29.92,SW,226,0.0,0.0,77,0.00,OVC,,0.22,19.0,WeatherDisplay:10.37,2013-09-28 23:06:00,
2013-09-28 18:11:00,60.0,52.1,29.93,WNW,298,0.7,3.5,75,0.00,OVC,,0.22,21.0,WeatherDisplay:10.37,2013-09-28 23:11:00,
2013-09-28 18:16:00,59.9,52.0,29.93,WNW,298,0.8,3.5,75,0.00,OVC,,0.22,23.0,WeatherDisplay:10.37,2013-09-28 23:16:00,
2013-09-28 18:22:00,60.2,52.2,29.93,West,274,0.0,0.0,75,0.00,OVC,,0.22,18.0,WeatherDisplay:10.37,2013-09-28 23:22:00,
2013-09-28 18:27:00,59.8,52.6,29.93,West,275,0.0,0.0,77,0.00,OVC,OVC,0.22,16.0,WeatherDisplay:10.37,2013-09-28 23:27:00,
2013-09-28 18:32:00,59.6,52.0,29.93,West,259,0.0,1.0,76,0.00,OVC,OVC,0.22,11.0,WeatherDisplay:10.37,2013-09-28 23:32:00,
2013-09-28 18:37:00,59.0,52.5,29.93,SW,234,0.0,0.0,79,0.00,OVC,OVC,0.22,9.0,WeatherDisplay:10.37,2013-09-28 23:37:00,
2013-09-28 18:42:00,58.6,52.4,29.93,SW,234,0.0,0.0,80,0.00,OVC,OVC,0.22,9.0,WeatherDisplay:10.37,2013-09-28 23:42:00,
2013-09-28 18:47:00,58.0,52.5,29.93,SW,234,0.0,0.0,82,0.00,OVC,OVC,0.22,7.0,WeatherDisplay:10.37,2013-09-28 23:47:00,
2013-09-28 18:52:00,57.5,52.4,29.94,SW,234,0.0,0.0,83,0.00,OVC,OVC,0.22,5.0,WeatherDisplay:10.37,2013-09-28 23:52:00,
2013-09-28 18:57:00,57.4,52.6,29.93,SW,234,0.0,0.0,84,0.00,OVC,OVC,0.22,0.0,WeatherDisplay:10.37,2013-09-28 23:57:00,
2013-09-28 19:02:00,57.0,52.3,29.94,SW,234,0.0,0.0,84,0.00,OVC,OVC,0.22,0.0,WeatherDisplay:10.37,2013-09-29 00:02:00,
2013-09-28 19:07:00,56.3,52.2,29.94,SW,234,0.0,0.0,86,0.00,OVC,OVC,0.22,0.0,WeatherDisplay:10.37,2013-09-29 00:07:00,
2013-09-28 19:12:00,56.0,52.5,29.94,SW,234,0.0,0.0,88,0.00,OVC,,0.22,0.0,WeatherDisplay:10.37,2013-09-29 00:12:00,
2013-09-28 19:17:00,55.8,52.3,29.94,SW,234,0.0,0.0,88,0.00,OVC,OVC,0.22,0.0,WeatherDisplay:10.37,2013-09-29 00:17:00,
2013-09-28 19:22:00,55.2,52.0,29.94,SW,234,0.0,0.0,89,0.00,OVC,OVC,0.22,0.0,WeatherDisplay:10.37,2013-09-29 00:22:00,
2013-09-28 19:27:00,54.8,51.9,29.94,SW,234,0.0,0.0,90,0.00,OVC,OVC,0.22,0.0,WeatherDisplay:10.37,2013-09-29 00:27:00,
2013-09-28 19:32:00,54.5,51.6,29.94,SW,234,0.0,0.0,90,0.00,OVC,OVC,0.22,0.0,WeatherDisplay:10.37,2013-09-29 00:32:00,
2013-09-28 19:37:00,54.1,51.6,29.94,SW,234,0.0,0.0,91,0.00,OVC,OVC,0.22,0.0,WeatherDisplay:10.37,2013-09-29 00:37:00,
2013-09-28 19:42:00,54.1,51.8,29.94,SW,234,0.0,0.0,92,0.00,OVC,OVC,0.22,0.0,WeatherDisplay:10.37,2013-09-29 00:42:00,
2013-09-28 19:47:00,54.0,51.7,29.94,SW,234,0.0,0.0,92,0.00,OVC,,0.22,0.0,WeatherDisplay:10.37,2013-09-29 00:47:00,
2013-09-28 19:52:00,53.7,51.4,29.94,SW,234,0.0,0.0,92,0.00,OVC,OVC,0.22,0.0,WeatherDisplay:10.37,2013-09-29 00:52:00,
2013-09-28 19:57:00,53.5,50.9,29.95,SW,234,0.0,0.0,91,0.00,OVC,OVC,0.22,0.0,WeatherDisplay:10.37,2013-09-29 00:57:00,
2013-09-28 20:02:00,53.4,51.1,29.95,SW,234,0.0,0.0,92,0.00,OVC,OVC,0.22,0.0,WeatherDisplay:10.37,2013-09-29 01:02:00,
2013-09-28 20:07:00,53.4,51.1,29.95,SW,234,0.0,0.0,92,0.00,OVC,OVC,0.22,0.0,WeatherDisplay:10.37,2013-09-29 01:07:00,
2013-09-28 20:12:00,53.2,50.9,29.95,SW,234,0.0,0.0,92,0.00,OVC,OVC,0.22,0.0,WeatherDisplay:10.37,2013-09-29 01:12:00,
2013-09-28 20:17:00,52.8,50.5,29.95,SW,234,0.0,0.0,92,0.00,OVC,OVC,0.22,0.0,WeatherDisplay:10.37,2013-09-29 01:17:00,
2013-09-28 20:22:00,52.7,50.7,29.96,SW,234,0.0,0.0,93,0.00,OVC,OVC,0.22,0.0,WeatherDisplay:10.37,2013-09-29 01:22:00,
2013-09-28 20:27:00,52.7,50.7,29.96,SW,234,0.0,0.0,93,0.00,OVC,OVC,0.22,0.0,WeatherDisplay:10.37,2013-09-29 01:27:00,
2013-09-28 20:32:00,52.5,50.5,29.97,SW,234,0.0,0.0,93,0.00,OVC,OVC,0.22,0.0,WeatherDisplay:10.37,2013-09-29 01:32:00,
2013-09-28 20:37:00,52.3,50.3,29.97,SW,234,0.0,0.0,93,0.00,OVC,OVC,0.22,0.0,WeatherDisplay:10.37,2013-09-29 01:37:00,
2013-09-28 20:42:00,52.1,50.1,29.98,SW,234,0.0,0.0,93,0.00,OVC,,0.22,0.0,WeatherDisplay:10.37,2013-09-29 01:42:00,
2013-09-28 20:47:00,52.1,50.4,29.98,SW,234,0.0,0.0,94,0.00,OVC,OVC,0.22,0.0,WeatherDisplay:10.37,2013-09-29 01:47:00,
2013-09-28 20:52:00,51.9,50.2,29.98,SW,234,0.0,0.0,94,0.00,OVC,OVC,0.22,0.0,WeatherDisplay:10.37,2013-09-29 01:52:00,
2013-09-28 20:57:00,51.8,50.1,29.98,SW,234,0.0,0.0,94,0.00,OVC,OVC,0.22,0.0,WeatherDisplay:10.37,2013-09-29 01:57:00,
2013-09-28 21:02:00,51.8,50.1,29.98,SW,234,0.0,0.0,94,0.00,OVC,,0.22,0.0,WeatherDisplay:10.37,2013-09-29 02:02:00,
2013-09-28 21:07:00,51.7,50.0,29.99,SW,234,0.0,0.0,94,0.00,OVC,,0.22,0.0,WeatherDisplay:10.37,2013-09-29 02:07:00,
2013-09-28 21:13:00,51.6,49.9,29.99,SW,234,0.0,0.0,94,0.00,OVC,,0.22,0.0,WeatherDisplay:10.37,2013-09-29 02:13:00,
2013-09-28 21:18:00,51.4,49.7,29.98,SW,234,0.0,0.0,94,0.00,OVC,,0.22,0.0,WeatherDisplay:10.37,2013-09-29 02:18:00,
2013-09-28 21:23:00,51.4,50.0,29.99,SW,234,0.0,0.0,95,0.00,OVC,,0.22,0.0,WeatherDisplay:10.37,2013-09-29 02:23:00,
2013-09-28 21:28:00,51.4,50.0,29.99,SW,234,0.0,0.0,95,0.00,OVC,,0.22,0.0,WeatherDisplay:10.37,2013-09-29 02:28:00,
2013-09-28 21:34:00,51.4,50.0,29.99,SW,234,0.0,0.0,95,0.00,OVC,,0.22,0.0,WeatherDisplay:10.37,2013-09-29 02:34:00,
2013-09-28 21:39:00,51.3,49.9,29.99,SW,234,0.0,0.0,95,0.00,OVC,,0.22,0.0,WeatherDisplay:10.37,2013-09-29 02:39:00,
2013-09-28 21:44:00,51.4,50.0,29.99,SW,234,0.0,0.0,95,0.00,OVC,,0.22,0.0,WeatherDisplay:10.37,2013-09-29 02:44:00,
2013-09-28 21:49:00,51.3,49.9,30.00,SW,234,0.0,0.0,95,0.00,OVC,,0.22,0.0,WeatherDisplay:10.37,2013-09-29 02:49:00,
2013-09-28 21:55:00,51.2,49.5,30.00,SW,234,0.0,0.0,94,0.00,OVC,,0.22,0.0,WeatherDisplay:10.37,2013-09-29 02:55:00,
2013-09-28 22:00:00,51.2,49.8,30.00,SW,234,0.0,0.0,95,0.00,OVC,,0.22,0.0,WeatherDisplay:10.37,2013-09-29 03:00:00,
2013-09-28 22:05:00,51.0,49.3,30.00,SW,234,0.0,0.0,94,0.00,OVC,,0.22,0.0,WeatherDisplay:10.37,2013-09-29 03:05:00,
2013-09-28 22:10:00,50.9,49.2,30.00,SW,234,0.0,0.0,94,0.00,OVC,,0.22,0.0,WeatherDisplay:10.37,2013-09-29 03:10:00,
2013-09-28 22:16:00,50.9,49.5,30.00,SW,234,0.0,0.0,95,0.00,OVC,,0.22,0.0,WeatherDisplay:10.37,2013-09-29 03:16:00,
2013-09-28 22:21:00,50.8,49.1,30.00,SW,234,0.0,0.0,94,0.00,OVC,,0.22,0.0,WeatherDisplay:10.37,2013-09-29 03:21:00,
2013-09-28 22:26:00,50.6,48.9,30.00,SW,234,0.0,0.0,94,0.00,OVC,,0.22,0.0,WeatherDisplay:10.37,2013-09-29 03:26:00,
2013-09-28 22:31:00,50.3,48.6,30.00,SW,234,0.0,0.0,94,0.00,OVC,,0.22,0.0,WeatherDisplay:10.37,2013-09-29 03:31:00,
2013-09-28 22:37:00,50.2,48.8,30.01,SW,234,0.0,0.0,95,0.00,OVC,,0.22,0.0,WeatherDisplay:10.37,2013-09-29 03:37:00,
2013-09-28 22:42:00,50.0,48.6,30.01,SW,234,0.0,0.0,95,0.00,OVC,OVC,0.22,0.0,WeatherDisplay:10.37,2013-09-29 03:42:00,
2013-09-28 22:47:00,50.1,48.7,30.01,SW,234,0.0,0.0,95,0.00,OVC,OVC,0.22,0.0,WeatherDisplay:10.37,2013-09-29 03:47:00,
2013-09-28 22:52:00,49.9,48.5,30.01,SW,234,0.0,0.0,95,0.00,OVC,OVC,0.22,0.0,WeatherDisplay:10.37,2013-09-29 03:52:00,
2013-09-28 22:57:00,49.8,48.4,30.01,SW,234,0.0,0.0,95,0.00,OVC,,0.22,0.0,WeatherDisplay:10.37,2013-09-29 03:57:00,
2013-09-28 23:01:00,49.6,48.2,30.01,SW,234,0.0,0.0,95,0.00,OVC,,0.22,0.0,WeatherDisplay:10.37,2013-09-29 04:01:00,
2013-09-28 23:02:00,49.6,48.2,30.01,SW,234,0.0,0.0,95,0.00,OVC,,0.22,0.0,WeatherDisplay:10.37,2013-09-29 04:02:00,
2013-09-28 23:05:00,49.6,48.2,30.01,SW,234,0.0,0.0,95,0.00,OVC,,0.22,0.0,WeatherDisplay:10.37,2013-09-29 04:05:00,
2013-09-28 23:10:00,49.7,48.3,30.01,SW,234,0.0,0.0,95,0.00,CLR,,0.22,0.0,WeatherDisplay:10.37,2013-09-29 04:10:00,
2013-09-28 23:15:00,49.7,48.3,30.01,SW,234,0.0,0.0,95,0.00,CLR,,0.22,0.0,WeatherDisplay:10.37,2013-09-29 04:15:00,
2013-09-28 23:20:00,49.6,48.2,30.01,SW,234,0.0,0.0,95,0.00,CLR,,0.22,0.0,WeatherDisplay:10.37,2013-09-29 04:20:00,
2013-09-28 23:26:00,49.6,48.2,30.01,SW,234,0.0,0.0,95,0.00,CLR,,0.22,0.0,WeatherDisplay:10.37,2013-09-29 04:26:00,
2013-09-28 23:31:00,49.6,48.2,30.02,SW,234,0.0,0.0,95,0.00,CLR,,0.22,0.0,WeatherDisplay:10.37,2013-09-29 04:31:00,
2013-09-28 23:36:00,49.5,48.1,30.02,SW,234,0.0,0.0,95,0.00,CLR,,0.22,0.0,WeatherDisplay:10.37,2013-09-29 04:36:00,
2013-09-28 23:41:00,49.6,48.2,30.02,SW,234,0.0,0.0,95,0.00,CLR,,0.22,0.0,WeatherDisplay:10.37,2013-09-29 04:41:00,
2013-09-28 23:47:00,49.5,47.8,30.02,SW,234,0.0,0.0,94,0.00,CLR,,0.22,0.0,WeatherDisplay:10.37,2013-09-29 04:47:00,
2013-09-28 23:52:00,49.5,47.8,30.02,SW,234,0.0,0.0,94,0.00,CLR,CLR,0.22,0.0,WeatherDisplay:10.37,2013-09-29 04:52:00,
2013-09-28 23:57:00,49.5,47.8,30.02,SW,234,0.0,0.0,94,0.00,CLR,CLR,0.22,0.0,WeatherDisplay:10.37,2013-09-29 04:57:00,